| time (UTC) | temp F | wind direction | speed knots | gust knots | rain 1hr in | rain 24hr in | rain mn in | humidity % | barometer mb |
| 20260503054928 | 53 | 271 | 0.0 | 0.0 | 0.00 | 0.05 | 0.05 | 87 | 1020.8 |
| 20260503054425 | 52 | 271 | 0.0 | 0.0 | 0.00 | 0.05 | 0.05 | 88 | 1020.9 |
| 20260503053923 | 52 | 271 | 0.0 | 0.0 | 0.00 | 0.05 | 0.05 | 88 | 1021.0 |
| 20260503053420 | 52 | 271 | 0.0 | 0.0 | 0.00 | 0.05 | 0.05 | 87 | 1020.8 |
| 20260503052916 | 53 | 271 | 0.0 | 0.0 | 0.00 | 0.05 | 0.05 | 86 | 1021.0 |
| 20260503052414 | 53 | 271 | 0.0 | 0.0 | 0.00 | 0.05 | 0.05 | 85 | 1021.0 |
| 20260503051910 | 53 | 271 | 0.0 | 0.0 | 0.00 | 0.05 | 0.05 | 86 | 1020.9 |
| 20260503051406 | 53 | 271 | 0.0 | 0.0 | 0.00 | 0.05 | 0.05 | 85 | 1021.2 |
| 20260503050903 | 53 | 271 | 0.0 | 0.0 | 0.00 | 0.05 | 0.05 | 84 | 1021.2 |
| 20260503050359 | 53 | 271 | 0.0 | 0.0 | 0.00 | 0.05 | 0.05 | 84 | 1021.0 |
| 20260503045857 | 53 | 271 | 0.0 | 0.0 | 0.00 | 0.05 | 0.05 | 84 | 1021.3 |
| 20260503045354 | 54 | 271 | 0.0 | 0.9 | 0.00 | 0.05 | 0.05 | 84 | 1021.2 |
| 20260503044851 | 54 | 271 | 0.0 | 0.0 | 0.00 | 0.05 | 0.05 | 84 | 1021.2 |
| 20260503044348 | 54 | 271 | 0.0 | 0.9 | 0.00 | 0.05 | 0.05 | 83 | 1021.2 |
| 20260503043845 | 54 | 271 | 0.9 | 0.9 | 0.00 | 0.05 | 0.05 | 83 | 1021.2 |
| 20260503043342 | 54 | 271 | 0.0 | 0.0 | 0.00 | 0.05 | 0.05 | 83 | 1021.2 |
| 20260503042838 | 53 | 271 | 0.0 | 0.9 | 0.00 | 0.05 | 0.05 | 82 | 1021.1 |
| 20260503042335 | 53 | 271 | 0.0 | 0.0 | 0.00 | 0.05 | 0.05 | 84 | 1020.9 |
| 20260503041830 | 53 | 271 | 0.9 | 0.9 | 0.00 | 0.05 | 0.05 | 84 | 1020.9 |
| 20260503041328 | 53 | 271 | 0.9 | 0.9 | 0.00 | 0.05 | 0.05 | 83 | 1020.5 |
| 20260503040826 | 53 | 271 | 0.0 | 0.9 | 0.00 | 0.05 | 0.05 | 82 | 1021.0 |
| 20260503040323 | 54 | 273 | 0.9 | 0.9 | 0.05 | 0.05 | 0.05 | 82 | 1020.7 |
| 20260503035820 | 54 | 349 | 0.9 | 0.9 | 0.05 | 0.05 | 0.05 | 78 | 1020.7 |
| 20260503035317 | 54 | 310 | 1.7 | 1.7 | 0.00 | 0.04 | 0.04 | 79 | 1020.5 |
| 20260503034814 | 54 | 311 | 0.0 | 0.0 | 0.00 | 0.04 | 0.04 | 80 | 1020.9 |
| 20260503034312 | 55 | 316 | 0.0 | 0.9 | 0.00 | 0.04 | 0.04 | 78 | 1020.8 |
| 20260503033809 | 55 | 324 | 0.0 | 0.0 | 0.07 | 0.04 | 0.04 | 75 | 1021.0 |
| 20260503033306 | 56 | 328 | 0.0 | 0.9 | 0.07 | 0.04 | 0.04 | 72 | 1021.0 |
| 20260503032804 | 56 | 257 | 0.9 | 0.9 | 0.00 | 0.03 | 0.03 | 70 | 1020.9 |
| 20260503032304 | 56 | 256 | 1.7 | 1.7 | 0.00 | 0.03 | 0.03 | 65 | 1021.0 |
| 20260503031759 | 56 | 310 | 0.0 | 0.0 | 0.00 | 0.03 | 0.03 | 67 | 1020.9 |
| 20260503031258 | 57 | 311 | 1.7 | 2.6 | 0.00 | 0.03 | 0.03 | 67 | 1020.7 |
| 20260503030753 | 58 | 334 | 0.9 | 0.9 | 0.00 | 0.03 | 0.03 | 64 | 1020.9 |
| 20260503030250 | 58 | 206 | 0.0 | 0.9 | 0.00 | 0.03 | 0.03 | 64 | 1021.1 |
| 20260503025747 | 58 | 196 | 0.9 | 0.9 | 0.00 | 0.03 | 0.03 | 64 | 1020.8 |
| 20260503025244 | 57 | 301 | 0.0 | 0.0 | 0.00 | 0.03 | 0.03 | 63 | 1020.5 |
| 20260503024741 | 57 | 306 | 0.9 | 0.9 | 0.00 | 0.03 | 0.03 | 63 | 1020.1 |
| 20260503024238 | 57 | 309 | 0.0 | 0.9 | 0.00 | 0.03 | 0.03 | 66 | 1020.2 |
| 20260503023735 | 57 | 315 | 0.9 | 1.7 | 0.00 | 0.03 | 0.03 | 67 | 1019.9 |
| 20260503023232 | 57 | 322 | 2.6 | 2.6 | 0.00 | 0.03 | 0.03 | 66 | 1019.9 |
| 20260503022728 | 57 | 308 | 0.9 | 0.9 | 0.00 | 0.03 | 0.03 | 66 | 1019.7 |
| 20260503022228 | 57 | 303 | 1.7 | 2.6 | 0.00 | 0.03 | 0.03 | 68 | 1019.9 |
| 20260503021725 | 57 | 308 | 3.5 | 4.3 | 0.00 | 0.03 | 0.03 | 68 | 1019.6 |
| 20260503021221 | 57 | 329 | 2.6 | 4.3 | 0.00 | 0.03 | 0.03 | 68 | 1019.4 |
| 20260503020719 | 57 | 287 | 0.9 | 1.7 | 0.00 | 0.03 | 0.03 | 69 | 1019.6 |
| 20260503020216 | 58 | 321 | 3.5 | 5.2 | 0.00 | 0.03 | 0.03 | 68 | 1019.5 |
| 20260503015713 | 58 | 333 | 3.5 | 4.3 | 0.00 | 0.03 | 0.03 | 66 | 1019.6 |
| 20260503015210 | 58 | 298 | 3.5 | 5.2 | 0.00 | 0.03 | 0.03 | 68 | 1019.5 |
| 20260503014705 | 59 | 292 | 2.6 | 4.3 | 0.00 | 0.03 | 0.03 | 67 | 1019.5 |
| 20260503014203 | 59 | 297 | 3.5 | 5.2 | 0.00 | 0.03 | 0.03 | 66 | 1019.6 |
| 20260503013700 | 59 | 259 | 4.3 | 6.1 | 0.00 | 0.03 | 0.03 | 63 | 1019.4 |
| 20260503013158 | 59 | 261 | 3.5 | 5.2 | 0.00 | 0.03 | 0.03 | 65 | 1019.4 |
| 20260503012655 | 60 | 309 | 3.5 | 6.1 | 0.00 | 0.03 | 0.03 | 66 | 1019.5 |
| 20260503012152 | 62 | 294 | 3.5 | 5.2 | 0.00 | 0.03 | 0.03 | 59 | 1019.3 |
| 20260503011648 | 61 | 315 | 2.6 | 5.2 | 0.00 | 0.03 | 0.03 | 58 | 1019.3 |
| 20260503011146 | 61 | 313 | 2.6 | 2.6 | 0.00 | 0.03 | 0.03 | 60 | 1019.4 |
| 20260503010642 | 62 | 311 | 2.6 | 2.6 | 0.00 | 0.03 | 0.03 | 61 | 1019.5 |
| 20260503010139 | 62 | 297 | 2.6 | 4.3 | 0.00 | 0.03 | 0.03 | 60 | 1019.5 |
| 20260503005636 | 62 | 335 | 0.0 | 0.9 | 0.00 | 0.03 | 0.03 | 55 | 1019.7 |
| 20260503005133 | 61 | 87 | 2.6 | 2.6 | 0.00 | 0.03 | 0.03 | 50 | 1019.6 |
| 20260503004630 | 61 | 270 | 0.9 | 0.9 | 0.05 | 0.03 | 0.03 | 57 | 1019.5 |
| 20260503004128 | 61 | 152 | 5.2 | 7.0 | 0.05 | 0.03 | 0.03 | 53 | 1019.6 |
| 20260503003625 | 61 | 16 | 0.0 | 0.9 | 0.00 | 0.02 | 0.02 | 55 | 1019.5 |
| 20260503003122 | 59 | 339 | 2.6 | 2.6 | 0.00 | 0.02 | 0.02 | 57 | 1019.6 |
| 20260503002619 | 59 | 204 | 0.0 | 0.9 | 0.07 | 0.02 | 0.02 | 64 | 1019.6 |
| 20260503002115 | 61 | 149 | 2.6 | 2.6 | 0.12 | 0.02 | 0.02 | 58 | 1019.5 |
| 20260503001611 | 65 | 148 | 5.2 | 6.1 | 0.05 | 0.01 | 0.01 | 50 | 1018.9 |
| 20260503001109 | 68 | 177 | 2.6 | 2.6 | 0.00 | 0.00 | 0.00 | 38 | 1018.6 |
| 20260503000606 | 68 | 211 | 2.6 | 2.6 | 0.00 | 0.00 | 0.00 | 31 | 1018.1 |
| 20260503000103 | 68 | 205 | 0.0 | 1.7 | 0.00 | 0.00 | 0.00 | 31 | 1018.3 |
| 20260502235600 | 69 | 220 | 0.0 | 0.9 | 0.00 | 0.00 | 0.00 | 32 | 1018.3 |
| 20260502235058 | 68 | 345 | 0.9 | 2.6 | 0.00 | 0.00 | 0.00 | 32 | 1018.1 |
| 20260502234553 | 68 | 13 | 0.0 | 0.0 | 0.00 | 0.00 | 0.00 | 33 | 1018.3 |
| 20260502234052 | 68 | 14 | 1.7 | 1.7 | 0.00 | 0.00 | 0.00 | 34 | 1018.3 |
| 20260502233551 | 68 | 302 | 0.9 | 1.7 | 0.00 | 0.00 | 0.00 | 34 | 1018.4 |
| 20260502233049 | 68 | 13 | 2.6 | 2.6 | 0.00 | 0.00 | 0.00 | 34 | 1018.3 |
| 20260502232545 | 68 | 162 | 3.5 | 5.2 | 0.00 | 0.00 | 0.00 | 33 | 1018.4 |
| 20260502232042 | 70 | 185 | 6.1 | 7.8 | 0.00 | 0.00 | 0.00 | 31 | 1018.0 |
| 20260502231539 | 71 | 213 | 0.9 | 1.7 | 0.00 | 0.00 | 0.00 | 29 | 1018.5 |
| 20260502231037 | 71 | 178 | 2.6 | 2.6 | 0.00 | 0.00 | 0.00 | 29 | 1018.3 |
| 20260502230535 | 71 | 215 | 2.6 | 4.3 | 0.00 | 0.00 | 0.00 | 29 | 1018.0 |
| 20260502230033 | 72 | 183 | 2.6 | 2.6 | 0.00 | 0.00 | 0.00 | 28 | 1017.9 |
| 20260502225528 | 72 | 206 | 1.7 | 1.7 | 0.00 | 0.00 | 0.00 | 29 | 1018.3 |
| 20260502225026 | 72 | 176 | 1.7 | 2.6 | 0.00 | 0.00 | 0.00 | 28 | 1018.1 |
| 20260502224522 | 72 | 218 | 1.7 | 1.7 | 0.00 | 0.00 | 0.00 | 28 | 1018.1 |
| 20260502224019 | 72 | 218 | 0.9 | 1.7 | 0.00 | 0.00 | 0.00 | 28 | 1018.5 |
| 20260502223517 | 72 | 234 | 0.9 | 1.7 | 0.00 | 0.00 | 0.00 | 29 | 1018.6 |
| 20260502223015 | 72 | 221 | 1.7 | 1.7 | 0.00 | 0.00 | 0.00 | 28 | 1018.5 |
| 20260502222512 | 73 | 222 | 1.7 | 1.7 | 0.00 | 0.00 | 0.00 | 29 | 1018.6 |
| 20260502222008 | 74 | 233 | 1.7 | 2.6 | 0.00 | 0.00 | 0.00 | 28 | 1018.4 |
| 20260502221504 | 72 | 205 | 1.7 | 2.6 | 0.00 | 0.00 | 0.00 | 28 | 1018.8 |
| 20260502221002 | 72 | 231 | 0.9 | 2.6 | 0.00 | 0.00 | 0.00 | 28 | 1018.9 |
| 20260502220456 | 72 | 237 | 1.7 | 4.3 | 0.00 | 0.00 | 0.00 | 28 | 1018.8 |
| 20260502215954 | 71 | 245 | 1.7 | 1.7 | 0.00 | 0.00 | 0.00 | 29 | 1018.9 |
| 20260502215451 | 71 | 256 | 0.9 | 1.7 | 0.00 | 0.00 | 0.00 | 29 | 1018.9 |
| 20260502214948 | 71 | 244 | 1.7 | 4.3 | 0.00 | 0.00 | 0.00 | 29 | 1018.9 |
| 20260502214445 | 71 | 253 | 1.7 | 4.3 | 0.00 | 0.00 | 0.00 | 29 | 1018.9 |
| 20260502213942 | 71 | 257 | 1.7 | 2.6 | 0.00 | 0.00 | 0.00 | 29 | 1019.3 |
| 20260502213438 | 71 | 262 | 3.5 | 4.3 | 0.00 | 0.00 | 0.00 | 27 | 1019.3 |
| 20260502212937 | 71 | 251 | 5.2 | 7.0 | 0.00 | 0.00 | 0.00 | 26 | 1019.3 |
| 20260502212436 | 71 | 260 | 2.6 | 4.3 | 0.00 | 0.00 | 0.00 | 29 | 1019.5 |
| 20260502211932 | 71 | 210 | 5.2 | 6.1 | 0.00 | 0.00 | 0.00 | 26 | 1019.5 |
| 20260502211428 | 71 | 231 | 0.9 | 2.6 | 0.00 | 0.00 | 0.00 | 27 | 1019.5 |
| 20260502210926 | 71 | 250 | 1.7 | 1.7 | 0.00 | 0.00 | 0.00 | 28 | 1019.6 |
| 20260502210422 | 72 | 247 | 0.0 | 0.9 | 0.00 | 0.00 | 0.00 | 29 | 1019.5 |
| 20260502205920 | 72 | 240 | 0.9 | 1.7 | 0.00 | 0.00 | 0.00 | 27 | 1019.7 |
| 20260502205416 | 72 | 249 | 0.9 | 1.7 | 0.00 | 0.00 | 0.00 | 28 | 1020.0 |
| 20260502204913 | 72 | 246 | 0.9 | 0.9 | 0.00 | 0.00 | 0.00 | 29 | 1019.7 |
| 20260502204410 | 72 | 214 | 0.9 | 0.9 | 0.00 | 0.00 | 0.00 | 29 | 1019.7 |
| 20260502203908 | 72 | 218 | 0.9 | 0.9 | 0.00 | 0.00 | 0.00 | 27 | 1019.9 |
| 20260502203405 | 73 | 243 | 0.0 | 0.0 | 0.00 | 0.00 | 0.00 | 27 | 1019.9 |
| 20260502202900 | 73 | 283 | 1.7 | 2.6 | 0.00 | 0.00 | 0.00 | 28 | 1019.9 |
| 20260502202358 | 73 | 233 | 0.9 | 0.9 | 0.00 | 0.00 | 0.00 | 28 | 1020.0 |
| 20260502201856 | 73 | 246 | 0.0 | 0.0 | 0.00 | 0.00 | 0.00 | 28 | 1019.9 |
| 20260502201351 | 72 | 222 | 0.0 | 0.0 | 0.00 | 0.00 | 0.00 | 27 | 1019.7 |
| 20260502200848 | 73 | 204 | 0.9 | 0.9 | 0.00 | 0.00 | 0.00 | 26 | 1019.9 |
| 20260502200344 | 73 | 224 | 1.7 | 2.6 | 0.00 | 0.00 | 0.00 | 26 | 1019.9 |
| 20260502195842 | 74 | 206 | 1.7 | 1.7 | 0.00 | 0.00 | 0.00 | 26 | 1019.7 |
| 20260502195338 | 75 | 225 | 0.9 | 0.9 | 0.00 | 0.00 | 0.00 | 26 | 1020.1 |
| 20260502194835 | 74 | 238 | 2.6 | 4.3 | 0.00 | 0.00 | 0.00 | 26 | 1020.2 |
| 20260502194332 | 73 | 223 | 0.9 | 0.9 | 0.00 | 0.00 | 0.00 | 28 | 1020.1 |
| 20260502193828 | 73 | 213 | 1.7 | 2.6 | 0.00 | 0.00 | 0.00 | 26 | 1020.2 |
| 20260502193325 | 74 | 251 | 1.7 | 1.7 | 0.00 | 0.00 | 0.00 | 27 | 1020.1 |
| 20260502192821 | 73 | 232 | 1.7 | 2.6 | 0.00 | 0.00 | 0.00 | 27 | 1020.3 |
| 20260502192318 | 73 | 246 | 2.6 | 4.3 | 0.00 | 0.00 | 0.00 | 27 | 1020.1 |
| 20260502191815 | 74 | 180 | 2.6 | 7.0 | 0.00 | 0.00 | 0.00 | 27 | 1020.0 |
| 20260502191313 | 73 | 173 | 3.5 | 5.2 | 0.00 | 0.00 | 0.00 | 26 | 1020.2 |
| 20260502190810 | 74 | 39 | 3.5 | 4.3 | 0.00 | 0.00 | 0.00 | 26 | 1020.1 |
| 20260502190307 | 74 | 163 | 1.7 | 2.6 | 0.00 | 0.00 | 0.00 | 26 | 1020.2 |
| 20260502185803 | 75 | 209 | 1.7 | 4.3 | 0.00 | 0.00 | 0.00 | 24 | 1020.2 |
| 20260502185259 | 76 | 217 | 2.6 | 6.1 | 0.00 | 0.00 | 0.00 | 25 | 1020.5 |
| 20260502184756 | 75 | 243 | 0.9 | 1.7 | 0.00 | 0.00 | 0.00 | 25 | 1020.4 |
| 20260502184251 | 75 | 240 | 0.9 | 0.9 | 0.00 | 0.00 | 0.00 | 26 | 1020.2 |
| 20260502183748 | 73 | 269 | 0.9 | 0.9 | 0.00 | 0.00 | 0.00 | 26 | 1020.4 |
| 20260502183244 | 74 | 272 | 0.9 | 0.9 | 0.00 | 0.00 | 0.00 | 29 | 1020.8 |
| 20260502182739 | 74 | 280 | 0.0 | 0.9 | 0.00 | 0.00 | 0.00 | 32 | 1020.5 |
| 20260502182235 | 71 | 323 | 0.9 | 1.7 | 0.00 | 0.00 | 0.00 | 30 | 1020.8 |
| 20260502181732 | 70 | 326 | 0.9 | 1.7 | 0.00 | 0.00 | 0.00 | 33 | 1020.9 |
| 20260502181231 | 70 | 358 | 0.9 | 0.9 | 0.00 | 0.00 | 0.00 | 33 | 1020.8 |
| 20260502180728 | 71 | 312 | 0.0 | 0.9 | 0.00 | 0.00 | 0.00 | 31 | 1020.8 |
| 20260502180226 | 70 | 315 | 1.7 | 2.6 | 0.00 | 0.00 | 0.00 | 33 | 1021.0 |
| 20260502170150 | 67 | 313 | 0.0 | 0.0 | 0.00 | 0.00 | 0.00 | 35 | 1021.3 |
| 20260502164136 | 65 | 316 | 0.9 | 0.9 | 0.00 | 0.00 | 0.00 | 34 | 1021.2 |
| 20260502163632 | 63 | 323 | 0.0 | 0.9 | 0.00 | 0.00 | 0.00 | 35 | 1021.0 |
| 20260502163129 | 63 | 333 | 0.9 | 1.7 | 0.00 | 0.00 | 0.00 | 35 | 1021.5 |
| 20260502162626 | 62 | 321 | 0.9 | 0.9 | 0.00 | 0.00 | 0.00 | 37 | 1021.2 |
| 20260502162123 | 63 | 9 | 1.7 | 1.7 | 0.00 | 0.00 | 0.00 | 36 | 1021.2 |
| 20260502161620 | 62 | 313 | 1.7 | 2.6 | 0.00 | 0.00 | 0.00 | 37 | 1021.2 |
| 20260502161117 | 64 | 295 | 0.9 | 1.7 | 0.00 | 0.00 | 0.00 | 35 | 1021.5 |
| 20260502160615 | 64 | 304 | 0.0 | 0.0 | 0.00 | 0.00 | 0.00 | 36 | 1021.5 |
| 20260502160114 | 64 | 275 | 0.0 | 0.0 | 0.00 | 0.00 | 0.00 | 37 | 1021.5 |
| 20260502152028 | 58 | 219 | 0.0 | 0.0 | 0.00 | 0.00 | 0.00 | 44 | 1021.5 |
| 20260502151525 | 57 | 218 | 0.0 | 0.0 | 0.00 | 0.00 | 0.00 | 48 | 1021.6 |
| 20260502151022 | 55 | 218 | 0.0 | 0.0 | 0.00 | 0.00 | 0.00 | 50 | 1021.7 |
| 20260502150519 | 55 | 218 | 0.0 | 0.0 | 0.00 | 0.00 | 0.00 | 49 | 1021.3 |
| 20260502130404 | 49 | 209 | 0.9 | 0.9 | 0.00 | 0.00 | 0.00 | 49 | 1020.7 |
| 20260502123347 | 49 | 209 | 0.0 | 0.0 | 0.00 | 0.00 | 0.00 | 49 | 1020.7 |
| 20260502122844 | 50 | 208 | 0.0 | 0.9 | 0.00 | 0.00 | 0.00 | 47 | 1020.5 |
| 20260502122340 | 50 | 208 | 0.0 | 0.0 | 0.00 | 0.00 | 0.00 | 46 | 1020.4 |
| 20260502121839 | 50 | 208 | 0.9 | 0.9 | 0.00 | 0.00 | 0.00 | 46 | 1020.4 |
| 20260502121335 | 49 | 208 | 0.9 | 0.9 | 0.00 | 0.00 | 0.00 | 45 | 1020.5 |
| 20260502120833 | 50 | 208 | 0.0 | 0.0 | 0.00 | 0.00 | 0.00 | 46 | 1020.3 |
| 20260502120329 | 50 | 208 | 0.0 | 0.0 | 0.00 | 0.00 | 0.00 | 45 | 1020.5 |
| 20260502115826 | 50 | 208 | 0.0 | 0.0 | 0.00 | 0.00 | 0.00 | 45 | 1020.4 |
| 20260502115324 | 51 | 208 | 0.0 | 0.0 | 0.00 | 0.00 | 0.00 | 44 | 1020.3 |
| 20260502114820 | 51 | 207 | 0.9 | 0.9 | 0.00 | 0.00 | 0.00 | 43 | 1020.5 |
| 20260502114317 | 51 | 208 | 0.0 | 0.9 | 0.00 | 0.00 | 0.00 | 42 | 1020.4 |
| 20260502113814 | 52 | 207 | 0.0 | 0.9 | 0.00 | 0.00 | 0.00 | 41 | 1020.3 |
| 20260502113311 | 51 | 210 | 0.9 | 0.9 | 0.00 | 0.00 | 0.00 | 41 | 1020.5 |
| 20260502112809 | 51 | 210 | 0.0 | 0.0 | 0.00 | 0.00 | 0.00 | 42 | 1020.5 |
| 20260502112306 | 51 | 210 | 0.0 | 0.0 | 0.00 | 0.00 | 0.00 | 41 | 1020.4 |
| 20260502111804 | 51 | 210 | 0.0 | 0.0 | 0.00 | 0.00 | 0.00 | 41 | 1020.4 |
| 20260502111301 | 51 | 209 | 0.0 | 0.0 | 0.00 | 0.00 | 0.00 | 41 | 1020.7 |
| 20260502110758 | 51 | 209 | 0.0 | 0.0 | 0.00 | 0.00 | 0.00 | 41 | 1020.5 |
| 20260502110256 | 51 | 214 | 0.9 | 0.9 | 0.00 | 0.00 | 0.00 | 41 | 1020.4 |
| 20260502105754 | 51 | 213 | 0.0 | 0.9 | 0.00 | 0.00 | 0.00 | 42 | 1020.4 |
| 20260502105250 | 51 | 213 | 0.9 | 0.9 | 0.00 | 0.00 | 0.00 | 42 | 1020.4 |
| 20260502104748 | 51 | 213 | 0.0 | 0.0 | 0.00 | 0.00 | 0.00 | 41 | 1020.3 |
| 20260502104245 | 51 | 213 | 0.0 | 0.0 | 0.00 | 0.00 | 0.00 | 41 | 1020.4 |
| 20260502103743 | 50 | 213 | 0.9 | 1.7 | 0.00 | 0.00 | 0.00 | 41 | 1020.5 |
| 20260502103240 | 49 | 214 | 0.9 | 0.9 | 0.00 | 0.00 | 0.00 | 42 | 1020.5 |
| 20260502102738 | 48 | 214 | 0.0 | 0.0 | 0.00 | 0.00 | 0.00 | 46 | 1020.2 |
| 20260502102233 | 50 | 214 | 0.0 | 0.0 | 0.00 | 0.00 | 0.00 | 47 | 1020.4 |
| 20260502101732 | 51 | 214 | 0.0 | 0.0 | 0.00 | 0.00 | 0.00 | 39 | 1020.4 |
| 20260502101230 | 52 | 214 | 0.0 | 0.0 | 0.00 | 0.00 | 0.00 | 38 | 1020.3 |
| 20260502100727 | 52 | 214 | 0.0 | 0.9 | 0.00 | 0.00 | 0.00 | 37 | 1020.1 |
| 20260502100226 | 52 | 214 | 0.0 | 0.9 | 0.00 | 0.00 | 0.00 | 37 | 1020.3 |
| 20260502091200 | 46 | 231 | 0.0 | 0.0 | 0.00 | 0.00 | 0.00 | 50 | 1020.5 |
| 20260502090657 | 48 | 231 | 0.0 | 0.0 | 0.00 | 0.00 | 0.00 | 54 | 1020.5 |
| 20260502090154 | 48 | 231 | 0.0 | 0.0 | 0.00 | 0.00 | 0.00 | 47 | 1020.8 |
| 20260502080111 | 53 | 231 | 0.0 | 0.0 | 0.00 | 0.00 | 0.00 | 37 | 1021.2 |
| 20260502071043 | 54 | 230 | 0.0 | 0.0 | 0.00 | 0.00 | 0.00 | 35 | 1021.3 |
| 20260502070542 | 54 | 230 | 0.0 | 0.0 | 0.00 | 0.00 | 0.00 | 36 | 1021.7 |